Wind_Speed
13 12 11 10 10 11 10 9 9 9 9 10 11 11 11 11 12 13 14 15 15 16 17 18 18 18 18 19 19 19 20 20 19 19 20 20 20 20 20 20 20 20 19 18 17 15 14 13 12 11 10 9 7 6 5 4 4 4 4 4 4 4 4 4 4 4 4 4 4 4 4 3 3 3 3 3 2 2 2 2 3 3 3 2 2
12 11 10 10 9 9 9 8 8 8 8 9 10 11 10 10 12 13 14 14 15 16 17 17 18 18 18 19 19 19 19 20 19 19 20 20 20 20 20 20 20 20 19 17 16 14 13 11 11 11 10 9 7 6 5 4 4 4 3 3 3 4 4 4 4 4 4 4 4 4 4 3 3 2 2 2 2 2 2 2 2 2 2 2 2
12 10 10 9 9 9 8 7 7 7 7 8 9 10 10 10 11 12 13 14 15 15 16 17 17 18 18 19 19 19 19 20 20 20 20 21 21 20 20 20 20 19 18 16 15 13 11 10 10 10 10 9 8 6 5 4 4 3 3 3 3 3 4 4 4 4 4 4 4 4 4 4 3 2 2 2 2 2 2 2 2 2 2 1 1
12 10 9 9 8 8 7 7 7 7 7 8 9 9 9 10 10 11 13 14 14 15 16 16 17 18 18 19 19 19 19 20 20 20 20 21 21 20 20 20 19 18 17 15 14 12 10 9 9 9 10 9 8 6 5 4 4 3 3 3 4 4 4 5 4 4 4 4 4 4 4 4 3 2 2 2 2 2 2 1 1 1 1 1 1
11 11 10 9 9 8 8 7 7 7 7 7 8 8 8 9 10 11 13 13 14 15 16 16 17 18 19 19 19 19 19 19 19 19 20 20 20 20 19 19 18 17 16 15 13 11 10 9 9 9 10 9 8 7 5 4 3 3 3 4 5 4 4 4 4 4 4 4 4 4 4 4 3 2 2 2 2 1 1 1 1 1 1 1 1
12 12 12 10 10 9 8 8 7 6 6 7 7 8 8 9 10 11 13 13 14 15 15 16 17 18 19 19 19 19 19 18 19 19 19 19 20 19 19 18 18 17 15 14 13 11 10 9 9 10 10 10 9 7 6 4 3 3 3 4 5 5 4 4 4 4 4 4 4 4 4 4 3 2 2 2 2 1 1 1 1 1 1 1 1
15 14 13 12 11 10 9 8 7 6 6 7 7 7 9 10 11 12 13 14 14 15 15 16 17 18 18 19 19 19 18 18 18 18 18 19 19 18 18 18 17 16 14 13 14 12 10 10 10 10 10 10 10 8 7 5 4 3 4 4 6 5 5 5 4 4 4 4 4 4 4 4 3 2 2 2 2 2 1 1 1 1 1 1 2
16 15 14 13 12 10 9 8 7 6 6 6 7 8 10 11 11 12 13 14 15 15 16 16 17 17 18 18 19 19 18 17 17 17 17 17 17 17 17 17 17 16 14 12 13 13 11 10 10 10 11 11 10 9 7 6 5 4 4 4 5 5 5 5 5 5 4 4 3 4 4 3 2 1 2 2 2 1 1 1 1 1 1 1 2
16 15 14 13 12 10 9 8 8 7 7 7 8 9 11 12 12 13 14 15 15 16 16 16 16 17 18 18 18 18 18 17 16 16 16 16 16 15 16 17 16 16 15 12 12 13 12 10 10 11 11 11 11 10 8 6 5 4 3 4 4 4 5 4 4 4 4 4 3 3 3 2 1 1 1 2 1 1 1 1 1 1 1 2 2
16 15 14 13 12 10 9 9 9 8 8 9 10 10 12 13 14 15 16 16 17 17 17 17 17 17 18 18 18 18 18 17 15 15 15 15 15 14 14 16 16 16 15 13 11 12 13 11 10 10 10 10 10 10 9 7 6 5 4 4 4 4 4 4 3 2 4 4 3 2 1 0 0 1 1 1 1 1 2 2 2 2 2 2 2
16 15 14 12 11 10 9 9 10 10 10 11 11 12 13 14 15 16 17 18 18 18 18 18 17 18 18 19 19 19 18 17 15 14 14 14 14 13 13 14 15 15 14 13 11 11 12 11 10 9 10 10 10 11 10 8 7 6 5 5 5 4 4 4 3 3 5 4 3 2 2 1 0 0 0 1 1 1 2 2 2 3 3 3 3
15 14 13 12 11 10 10 10 10 10 11 12 13 14 15 15 16 17 18 19 19 19 19 19 19 19 19 20 20 19 19 18 16 14 14 14 14 13 13 13 14 15 14 13 11 10 10 11 10 9 9 10 10 11 11 9 8 7 5 5 5 5 4 4 4 5 5 3 3 3 3 2 1 1 0 1 1 1 2 2 3 4 4 4 4
14 13 13 11 11 10 11 11 11 11 11 12 13 14 15 16 17 18 19 20 20 20 20 21 21 20 21 21 21 21 20 19 17 15 14 14 14 13 13 13 13 14 14 13 12 10 9 9 10 10 9 9 9 10 10 10 8 7 6 5 4 4 4 4 5 5 4 4 4 3 3 2 2 1 1 1 2 2 1 2 3 4 5 5 5
14 13 12 11 10 11 11 11 11 11 12 13 13 14 15 16 17 18 19 20 20 20 21 22 22 22 22 22 22 21 21 20 19 16 14 14 14 14 13 13 13 14 14 14 12 10 9 9 9 9 9 8 8 9 9 10 9 8 7 5 4 4 4 5 5 4 4 4 3 3 3 2 2 1 1 2 2 1 1 3 4 5 5 6 6
14 13 12 11 11 11 12 12 12 12 13 14 14 15 16 17 18 19 20 20 20 21 22 23 24 24 24 23 22 22 22 21 20 18 16 15 15 15 14 13 13 14 14 14 13 11 9 9 8 8 8 8 7 8 9 9 9 8 7 6 5 4 4 4 5 4 3 3 3 3 3 3 3 2 2 2 2 1 2 4 5 6 6 6 6
14 13 12 11 12 12 13 12 12 12 13 14 15 16 17 17 18 19 20 20 21 21 22 23 24 25 25 24 24 23 22 22 21 18 17 15 15 16 15 14 14 14 14 14 13 11 10 8 8 7 6 7 6 7 8 8 8 8 7 6 5 4 4 4 4 3 3 3 3 3 4 4 4 3 3 2 2 2 4 5 7 7 7 7 7
14 13 12 12 13 13 13 13 13 13 13 13 14 15 16 17 18 18 19 20 21 21 23 24 25 26 26 26 25 24 23 22 20 18 17 16 15 16 16 15 14 14 15 15 14 12 10 8 7 7 5 5 6 6 7 7 8 8 7 5 5 4 4 4 3 3 2 3 2 3 4 4 5 4 4 4 4 4 5 6 7 7 7 8 8
15 14 14 14 14 13 13 13 13 13 12 12 12 14 15 16 17 18 18 20 20 21 23 24 26 27 26 26 26 25 23 21 20 18 17 16 15 16 16 16 14 14 15 15 14 13 11 8 6 6 5 4 5 5 6 6 7 7 6 5 4 4 4 4 2 1 2 3 3 3 4 4 5 5 4 4 4 5 5 6 6 7 7 8 8
15 16 15 15 14 14 14 14 14 13 12 12 13 14 15 16 16 17 18 19 20 20 22 24 25 26 26 26 26 24 23 21 20 18 17 16 15 16 17 16 14 14 16 16 15 14 12 8 6 6 5 4 3 4 4 5 5 6 6 5 4 4 3 4 2 1 2 3 3 4 4 4 4 4 3 4 4 5 5 6 7 7 7 8 8
16 16 16 15 15 14 14 14 14 13 13 13 13 15 16 16 17 17 18 19 19 20 21 23 24 25 25 26 25 22 21 21 20 18 17 17 15 16 17 17 15 14 16 17 16 15 13 9 6 6 5 4 3 3 3 4 4 5 6 6 4 3 3 3 2 2 2 3 4 4 4 4 4 4 4 4 5 6 6 7 7 7 8 8 9
17 17 17 16 15 14 14 14 13 13 13 14 15 16 17 17 17 18 19 20 20 20 21 22 23 23 24 24 22 20 20 21 20 19 18 17 16 16 17 17 16 15 16 18 17 16 15 11 8 6 5 4 3 2 2 2 3 3 6 7 5 3 2 3 2 2 2 3 4 4 4 4 4 4 4 4 5 6 7 7 8 8 8 9 9
17 17 17 16 14 13 13 13 13 13 14 15 16 17 17 17 17 17 18 19 19 19 20 21 22 21 21 21 20 19 20 21 21 20 19 18 17 16 17 17 16 15 16 18 18 18 16 13 9 7 6 5 4 3 2 1 2 2 5 7 6 4 2 2 3 3 2 3 3 4 4 4 4 4 4 5 5 6 7 7 8 8 9 10 10
17 16 15 14 13 12 12 12 12 13 14 15 16 17 16 16 16 16 17 17 17 19 20 20 20 19 18 18 19 20 22 23 23 21 19 18 17 16 17 17 16 15 15 18 19 18 17 15 11 9 8 6 4 3 3 1 0 1 3 7 7 5 3 1 2 3 3 3 4 4 4 4 4 3 4 4 5 5 6 7 7 9 10 10 10
16 15 14 14 12 11 11 11 11 11 12 14 15 14 14 14 14 15 15 16 16 18 19 19 19 18 17 17 18 20 23 23 22 20 18 18 18 16 15 15 15 16 15 16 18 18 17 16 13 10 9 7 5 4 3 3 1 1 1 6 7 6 4 2 2 3 4 4 4 4 4 4 4 3 4 4 5 5 5 6 7 8 10 10 10
15 14 13 13 11 9 9 9 10 11 12 12 12 12 12 13 13 14 14 14 15 16 17 18 17 17 16 17 17 18 20 20 19 17 16 17 17 17 16 16 16 16 15 16 18 18 16 15 13 12 10 7 5 4 4 4 3 1 1 6 8 6 5 3 2 3 4 4 4 4 4 5 5 4 4 5 5 6 6 6 7 8 9 10 10
15 14 13 11 9 8 9 10 10 10 11 11 11 12 12 12 13 14 14 14 14 14 15 16 15 15 15 14 13 15 16 18 18 16 14 15 16 17 18 18 18 18 17 16 18 18 16 15 13 13 11 9 7 5 5 5 4 2 1 6 8 7 6 5 3 3 4 5 5 5 5 5 5 4 4 5 6 6 6 6 7 8 9 10 10
15 14 12 10 9 9 9 10 11 11 11 11 12 12 11 12 13 14 14 14 14 14 14 14 13 12 13 11 10 13 15 16 18 15 12 12 13 15 16 16 17 18 18 18 19 19 17 14 13 13 12 11 9 7 6 6 6 3 2 6 8 7 7 6 4 4 5 6 5 5 6 6 6 5 5 5 6 6 6 6 7 8 9 10 10
15 13 12 11 10 9 10 10 11 11 11 11 11 11 12 12 13 14 15 14 13 13 13 13 12 11 12 10 10 12 13 15 16 11 8 8 9 11 14 14 15 16 17 18 19 19 18 15 13 13 13 13 12 10 7 6 7 4 3 6 8 8 8 7 5 4 5 6 6 6 6 6 6 5 5 5 5 5 6 6 6 7 9 10 10
15 14 13 12 10 10 10 10 11 11 10 10 11 11 12 13 13 14 15 15 14 12 11 11 11 11 11 11 10 11 11 12 13 9 8 9 9 9 11 13 14 14 16 18 19 19 17 15 13 13 13 14 14 12 8 6 8 6 4 7 8 8 8 7 6 5 6 7 7 7 7 7 7 6 5 5 5 5 5 6 6 7 9 10 11
17 15 14 12 11 10 10 10 10 11 11 11 11 12 13 13 13 13 15 15 14 12 10 10 10 10 11 11 10 10 11 10 10 9 9 10 10 10 10 11 11 12 14 17 18 18 17 15 14 13 13 14 15 13 10 7 8 7 6 8 9 8 8 8 7 6 6 7 8 8 7 8 7 6 6 5 5 5 5 6 6 8 9 10 11
18 16 15 13 12 10 9 9 10 11 11 11 11 11 12 13 14 14 15 15 13 11 11 10 8 8 9 10 9 10 10 10 9 8 9 9 10 10 10 10 10 11 13 14 16 17 17 16 14 14 13 14 16 14 12 9 8 7 7 9 10 9 9 8 8 8 7 8 9 9 8 8 8 7 6 6 5 5 5 6 7 8 9 10 10
19 17 15 13 11 9 9 9 9 10 11 10 10 11 12 13 14 15 15 14 12 10 10 9 7 7 7 8 9 9 9 10 10 10 10 10 10 10 11 11 12 13 13 13 14 16 17 18 17 15 14 14 15 14 14 12 9 7 7 10 12 11 10 9 9 9 8 9 10 10 10 9 9 8 7 7 6 5 5 6 7 7 8 8 8
19 17 14 12 10 8 8 8 9 10 10 10 10 11 12 13 14 15 14 13 11 9 8 7 7 7 6 7 8 8 9 9 10 11 11 11 11 11 12 13 15 16 15 15 16 17 18 19 19 18 15 14 14 15 16 14 11 8 8 10 13 12 11 10 9 10 10 10 11 11 11 10 9 8 8 7 7 6 6 6 7 7 7 7 7
18 16 13 11 10 8 8 8 10 11 11 11 11 12 12 13 13 13 13 11 10 9 8 7 7 7 7 8 8 8 9 9 10 11 11 12 11 12 12 13 15 17 17 17 18 18 19 18 20 20 17 14 15 17 17 15 12 11 9 10 12 13 13 11 10 10 11 10 11 13 12 11 10 9 8 8 8 7 6 6 7 7 7 6 6
18 17 15 13 11 9 9 9 11 11 11 11 12 12 12 12 11 11 11 11 10 10 8 8 7 8 9 9 9 8 9 9 10 11 11 12 12 12 12 13 14 16 17 18 18 18 19 18 18 21 20 18 17 16 16 15 15 14 11 10 12 13 13 13 11 11 12 11 12 13 12 12 11 10 9 9 8 8 7 6 7 7 6 6 6
19 17 15 14 12 11 10 11 12 11 11 11 12 12 12 11 10 11 11 11 10 10 9 9 9 9 10 10 10 10 11 11 12 12 13 13 13 14 14 14 15 16 16 17 18 18 18 17 17 18 20 21 18 15 15 17 18 16 13 12 13 12 13 13 12 11 12 12 13 13 12 12 12 11 10 9 9 9 8 7 7 7 7 6 5
18 16 15 14 12 11 11 12 12 12 12 12 12 12 12 11 11 11 11 11 10 10 10 10 10 10 10 11 12 12 13 13 13 14 14 15 15 15 16 16 16 16 16 16 17 17 17 16 15 16 18 20 19 16 17 18 17 16 15 15 15 14 14 13 12 13 13 13 14 13 13 13 13 12 11 10 10 10 9 8 7 7 7 6 5
14 14 14 14 13 13 13 13 13 13 13 13 13 13 12 12 12 12 11 11 10 11 11 11 11 12 12 13 14 14 14 15 15 15 15 16 17 17 18 18 17 17 17 16 16 16 16 15 14 16 18 20 19 18 18 17 15 15 16 16 16 17 17 15 14 14 15 15 15 15 15 14 14 13 12 11 10 10 9 9 8 7 7 6 6
15 14 15 15 16 17 16 15 15 14 13 13 13 13 13 13 12 11 11 11 11 11 12 12 13 13 14 15 16 16 15 15 15 16 16 17 17 19 19 20 19 18 18 17 17 16 15 14 14 15 19 21 21 22 21 18 16 16 17 18 17 18 19 18 16 16 17 17 17 17 17 16 15 14 13 12 11 10 10 9 8 8 8 7 7
17 16 15 15 17 18 17 16 15 14 13 13 13 13 13 13 12 12 12 12 12 12 13 13 14 14 15 16 16 16 16 16 16 17 18 18 19 20 20 21 21 21 20 19 18 17 16 16 15 16 19 21 23 24 24 23 20 19 18 17 17 17 19 20 18 17 18 18 18 18 18 18 16 15 14 13 12 11 11 10 9 8 8 8 9
16 15 14 15 16 17 17 16 15 14 14 13 13 13 13 13 13 13 13 13 13 13 13 14 15 15 16 17 17 16 16 16 17 17 18 20 21 21 22 22 23 23 22 21 20 19 18 18 18 18 18 20 22 23 24 24 23 21 19 18 19 20 21 22 21 19 19 20 20 19 19 19 17 16 14 14 13 12 11 11 10 9 9 9 9
16 15 14 15 17 17 17 17 16 15 14 13 13 12 12 13 13 13 13 14 14 14 14 15 16 17 17 18 18 18 18 18 18 18 19 20 22 23 23 24 24 24 24 22 21 21 21 20 20 20 20 20 21 22 22 23 22 22 22 20 20 22 23 23 23 22 21 21 21 20 19 19 18 17 15 14 14 13 12 11 11 10 10 10 10
16 15 15 16 17 17 17 17 16 15 14 13 13 12 12 12 12 13 14 15 15 15 15 16 17 18 18 19 19 19 19 20 20 20 21 22 23 24 24 25 25 25 25 24 22 22 22 22 22 22 21 20 20 22 24 24 23 24 25 23 22 23 24 23 23 24 23 23 22 21 20 20 20 19 17 16 15 14 13 12 11 11 11 11 11
17 17 17 18 17 17 17 17 16 15 15 14 13 12 12 12 12 13 14 15 15 15 16 17 18 19 20 20 20 20 20 21 21 22 23 24 26 27 27 27 27 26 26 25 24 23 23 22 22 23 23 21 20 21 25 26 24 24 26 27 26 26 24 24 25 26 24 24 23 22 20 20 20 19 18 17 16 15 14 13 12 12 12 12 12
18 18 18 18 18 18 17 17 16 16 15 14 13 13 12 13 14 14 15 15 15 16 16 17 19 20 21 21 20 21 20 20 21 22 23 25 27 28 29 29 29 27 26 27 26 25 24 23 23 24 24 22 22 21 23 26 26 25 26 28 29 27 25 27 27 24 23 24 24 22 21 21 21 20 19 18 17 16 15 14 14 13 13 13 12
19 19 19 19 19 19 18 18 17 16 16 15 14 14 13 14 15 15 15 16 16 17 17 18 19 20 21 21 21 21 20 20 20 21 23 25 27 28 30 31 30 28 28 27 26 25 26 26 26 25 24 24 24 22 22 25 28 27 25 27 29 27 27 29 27 23 22 24 24 23 23 22 21 20 20 20 18 17 17 16 14 14 13 13 13
21 20 20 20 20 20 20 19 19 18 17 17 16 15 15 15 15 16 16 16 17 18 18 19 19 20 20 20 20 21 21 21 21 22 24 25 27 28 30 31 32 31 30 28 27 27 27 28 28 26 25 26 25 25 24 25 28 27 26 27 29 28 29 29 27 24 23 23 24 24 24 23 22 21 20 21 20 19 18 17 15 15 14 14 14
21 20 21 21 21 21 21 21 20 19 18 17 17 16 16 17 16 16 17 17 18 19 19 20 20 21 20 20 20 21 21 21 22 23 25 26 27 29 30 32 33 34 31 29 29 29 27 28 28 26 26 26 25 26 26 25 26 26 27 29 29 29 29 28 28 26 24 24 24 24 25 24 23 21 21 22 21 20 19 18 17 16 15 14 14
21 21 22 22 22 22 22 22 21 19 18 18 18 18 18 18 17 18 18 19 19 20 20 21 22 22 21 20 20 21 21 22 23 24 25 26 27 29 30 31 33 34 32 29 29 29 28 28 28 25 24 24 24 25 25 25 26 25 26 28 29 29 29 28 28 27 25 25 25 25 26 25 23 23 23 23 22 21 20 19 17 17 15 15 14
22 22 22 22 23 23 22 21 20 19 19 19 19 19 19 18 18 19 20 20 21 21 22 23 23 23 22 21 21 22 22 23 24 24 25 26 27 28 29 30 31 32 31 30 29 28 27 26 26 24 22 22 22 24 25 26 27 26 26 27 28 29 29 29 29 28 28 27 26 27 27 26 25 25 24 23 22 21 20 19 18 18 16 15 15
23 23 23 23 23 22 21 19 19 19 19 19 19 19 19 19 20 21 21 22 22 22 23 24 24 24 23 22 21 22 22 23 24 25 25 25 26 27 28 28 30 30 31 31 30 29 27 26 25 24 24 24 24 24 26 27 28 28 28 28 28 29 31 32 32 31 30 28 28 29 28 27 27 26 25 23 22 21 20 20 20 19 17 16 15
Wind_Direction
304 304 303 306 314 319 322 324 329 332 336 338 340 343 344 346 349 350 348 343 339 339 340 340 340 342 345 347 349 350 350 351 352 352 352 352 353 353 353 353 352 352 352 352 352 354 356 359 2 4 2 0 0 4 11 21 30 40 43 43 50 54 55 52 54 62 68 73 75 77 70 61 66 79 91 99 100 97 95 95 95 93 87 76 63
301 299 299 303 311 314 315 318 322 324 332 335 337 341 344 349 350 348 341 335 335 336 337 336 338 340 343 346 347 349 349 350 351 352 352 352 353 353 354 354 353 353 353 353 354 355 358 1 6 8 6 2 1 4 9 18 28 35 37 38 48 59 67 65 61 61 65 68 72 80 80 68 62 69 84 99 98 96 93 91 94 94 89 81 67
297 295 296 300 304 304 305 309 311 316 326 331 335 340 346 351 347 339 332 331 332 332 332 333 335 338 340 343 345 348 348 349 351 352 352 352 353 354 356 355 354 354 354 355 356 356 359 5 11 12 9 5 2 3 7 17 28 32 26 33 48 61 74 76 71 67 69 72 73 74 78 71 59 61 77 91 95 94 89 86 86 85 86 80 62
294 290 290 291 291 290 293 297 299 307 320 328 335 341 347 346 337 328 326 326 327 326 328 331 334 336 338 340 343 346 347 348 351 352 352 352 352 355 356 355 354 354 356 357 357 357 1 10 16 17 14 9 4 3 9 19 28 27 22 39 52 58 69 76 74 69 66 67 72 68 69 72 61 48 56 72 80 83 84 84 76 72 65 51 35
286 281 278 278 276 276 280 285 291 304 319 329 336 340 340 331 324 321 320 320 320 321 323 328 332 334 336 338 340 343 345 347 349 350 351 352 352 354 356 354 354 355 357 359 358 359 6 16 22 22 19 14 8 5 9 17 29 33 37 57 64 59 60 67 69 69 67 63 66 66 67 71 64 50 49 59 69 76 81 80 74 58 40 24 9
272 271 269 268 267 269 275 281 289 305 320 327 333 331 322 314 313 313 313 314 315 317 320 326 330 332 333 335 337 339 342 345 348 349 350 352 352 354 355 353 353 356 358 360 1 2 8 19 26 26 24 20 14 6 4 8 20 32 44 67 76 71 66 69 68 69 70 67 65 68 69 66 63 55 54 59 63 69 74 70 62 43 19 3 349
262 264 263 262 263 268 274 282 291 304 314 318 320 312 304 303 305 305 306 308 309 313 319 325 328 330 330 332 334 335 338 342 345 346 349 351 352 353 353 353 353 356 359 2 4 5 10 20 26 28 29 27 21 12 4 3 11 26 41 63 77 78 73 73 72 69 67 67 67 66 66 62 58 60 61 62 60 59 57 55 48 30 7 352 341
258 259 258 258 261 266 273 279 286 293 298 299 295 290 291 294 297 299 301 302 305 311 317 322 325 326 326 328 330 331 333 337 342 344 346 350 353 353 352 352 353 356 360 2 4 7 11 19 26 27 28 29 27 20 10 2 4 18 37 53 68 79 79 75 72 71 68 63 60 57 60 60 55 61 61 56 50 40 37 37 32 21 3 346 336
253 254 254 255 259 264 269 274 278 282 281 278 276 279 283 288 293 296 297 300 304 308 312 317 320 321 322 324 325 326 327 332 337 340 343 348 352 352 351 352 353 355 1 2 1 7 11 16 24 26 26 27 27 25 18 5 356 1 19 37 48 60 67 68 63 67 68 55 45 44 48 56 51 46 49 42 28 11 360 3 5 3 355 341 330
245 248 251 255 259 263 266 271 275 276 275 274 276 279 282 288 293 295 298 301 303 305 308 312 315 315 317 319 320 320 321 325 331 335 339 344 349 351 350 351 352 354 359 2 359 3 11 15 20 26 26 26 26 27 25 14 3 357 359 9 21 36 45 46 32 32 49 36 16 20 13 19 48 33 44 30 360 341 338 342 341 337 337 330 319
241 246 251 257 260 262 265 269 274 277 279 280 283 285 288 292 296 298 302 303 303 304 307 309 310 311 314 315 315 315 316 319 324 329 335 340 344 347 348 349 350 351 355 360 360 360 8 14 17 24 26 25 25 26 26 21 13 5 358 355 357 11 22 21 10 24 37 13 335 310 271 265 277 338 35 360 327 323 324 331 332 329 326 321 313
243 249 254 259 261 261 264 270 274 277 281 284 287 291 293 296 299 302 304 303 303 304 306 307 308 310 312 312 311 311 312 314 318 323 330 335 338 341 343 345 347 349 351 354 359 360 2 9 16 22 26 25 24 24 25 21 17 12 5 356 351 351 356 357 360 28 33 340 299 279 269 267 251 240 244 268 283 298 312 329 332 327 323 317 312
246 252 257 260 262 263 266 271 273 277 281 285 289 292 294 297 300 302 302 302 302 303 305 305 307 309 309 308 309 310 309 311 313 316 324 329 332 335 338 341 343 345 347 348 353 358 356 358 8 18 25 25 21 22 24 21 15 12 9 1 352 344 343 347 350 19 22 327 303 289 279 266 256 245 242 246 254 269 312 341 338 331 325 319 315
250 254 258 262 264 265 267 270 273 278 281 283 285 288 292 296 298 299 300 300 300 301 302 305 308 308 306 305 307 309 308 307 309 313 320 324 325 330 334 336 339 340 343 345 346 352 356 351 353 9 21 22 20 20 21 20 16 10 7 2 357 351 348 345 344 10 17 338 319 308 299 286 281 274 258 250 249 252 353 352 340 332 327 322 318
251 255 260 263 264 265 266 270 274 277 280 283 286 288 292 294 296 296 296 297 297 299 302 306 307 305 304 304 307 310 308 305 307 314 318 321 321 324 329 331 334 336 338 342 342 345 354 353 344 353 12 16 18 21 21 20 18 12 7 2 360 358 354 347 346 9 29 4 347 336 324 313 307 302 286 267 256 272 343 340 332 326 321 316 312
252 257 261 263 263 264 265 269 272 274 279 282 285 288 289 289 290 291 293 294 295 299 303 305 306 305 305 306 309 311 307 304 307 313 315 317 317 319 323 326 331 333 334 337 338 340 349 353 342 342 360 10 14 20 24 20 18 15 10 7 1 360 360 357 357 14 32 21 4 343 327 319 314 311 305 287 281 304 320 322 320 318 315 310 306
254 258 260 261 263 264 267 270 272 274 277 279 280 281 281 283 287 290 292 295 297 301 303 305 306 306 307 308 311 311 306 302 305 308 309 312 313 313 318 322 328 330 329 332 334 337 346 350 342 339 348 5 10 16 26 22 15 12 11 10 1 3 5 4 12 23 16 3 354 334 321 316 312 311 309 303 304 312 315 316 316 314 311 307 305
254 258 258 260 262 265 269 273 275 277 278 277 275 274 277 283 289 293 296 298 300 303 305 308 309 308 308 309 311 310 304 299 300 302 303 307 307 307 311 317 324 327 325 327 330 335 342 345 337 335 338 355 6 10 24 26 14 4 5 7 360 5 6 2 15 28 355 340 341 327 318 318 313 313 313 315 319 322 322 319 316 313 310 307 304
253 256 257 259 261 265 269 272 276 278 277 274 272 275 280 286 291 295 298 302 304 306 309 311 310 308 308 309 310 308 302 295 295 296 298 300 300 302 306 311 318 322 323 323 326 331 336 337 325 326 330 334 354 4 18 29 17 357 351 357 1 5 3 2 360 317 330 334 338 330 324 325 321 323 331 337 339 339 334 325 319 317 316 313 309
250 254 256 258 260 263 266 268 271 273 273 272 275 279 282 287 292 297 302 306 308 309 312 313 310 308 309 309 308 305 298 293 291 292 293 294 294 296 299 305 312 315 318 319 321 326 331 329 312 315 321 310 324 353 11 29 27 356 339 341 354 359 354 358 340 285 317 331 336 335 331 333 331 338 350 353 350 346 338 329 325 326 325 319 315
247 251 254 257 260 262 262 264 267 270 272 274 278 280 284 288 293 299 306 310 311 311 312 314 312 311 310 307 305 302 295 290 288 287 288 288 287 289 293 299 304 308 312 314 316 321 325 323 305 302 309 290 286 324 352 25 43 1 327 325 333 343 355 354 319 276 301 320 330 335 333 332 333 343 352 354 352 348 341 335 332 331 330 325 320
247 251 255 259 261 263 265 267 270 273 276 278 280 282 285 289 294 301 308 311 312 310 311 313 313 312 309 306 303 301 297 291 286 285 286 285 283 283 286 292 296 299 305 308 311 316 321 318 303 296 298 276 254 282 314 343 59 21 315 310 314 322 356 353 304 278 281 304 322 333 332 329 328 339 350 351 351 348 343 340 335 334 335 331 324
251 254 257 260 263 267 269 271 274 278 279 279 280 282 286 290 294 300 306 309 309 307 307 310 310 309 308 306 303 304 303 296 288 285 288 287 280 277 279 285 289 290 297 303 305 311 316 313 301 293 294 274 242 254 280 267 146 55 307 296 300 311 327 338 297 282 273 293 316 330 330 323 320 330 344 346 347 346 345 342 335 334 339 337 329
255 256 257 262 266 269 272 275 278 280 279 278 279 280 284 289 292 296 302 305 305 304 303 304 305 306 309 310 308 311 311 304 294 286 289 290 279 271 277 285 286 285 290 299 301 305 311 309 297 290 292 275 241 244 260 250 246 93 283 278 285 298 303 303 282 273 267 279 303 322 322 314 310 319 335 341 343 343 343 341 334 334 340 341 334
256 257 260 265 266 267 275 281 283 283 279 276 275 276 281 287 290 292 298 300 300 302 302 302 304 305 308 311 310 311 314 313 307 293 290 292 279 267 272 280 283 284 291 298 298 298 304 305 294 286 289 277 253 248 253 249 246 216 203 258 271 281 287 287 274 267 265 271 291 309 312 305 304 311 326 337 342 341 341 338 332 331 336 340 337
256 260 264 266 267 271 280 285 285 281 276 273 272 276 282 286 288 291 293 293 296 303 306 306 306 306 307 310 311 312 314 318 316 305 293 292 282 269 270 273 276 283 290 297 297 295 296 298 291 282 283 279 269 261 255 254 250 240 195 240 258 270 276 278 272 266 263 266 279 294 298 295 296 305 318 331 338 339 337 335 330 328 332 337 336
256 258 261 264 268 274 279 285 287 280 274 274 275 279 283 285 286 288 289 289 294 304 308 307 307 308 310 314 319 318 319 323 319 308 296 293 284 273 271 270 274 281 284 287 293 294 292 291 286 279 278 278 275 269 262 260 256 250 212 231 246 259 268 271 270 268 262 261 268 280 288 291 293 298 308 321 331 332 333 334 331 327 331 334 334
253 255 256 258 263 268 277 284 284 282 278 276 278 281 282 281 282 285 287 288 292 301 305 305 305 306 307 314 323 322 325 336 335 320 307 310 297 278 271 271 277 285 282 280 285 288 287 287 282 275 275 276 275 274 268 260 261 258 228 237 241 247 259 264 265 264 262 258 261 272 281 289 290 292 297 309 320 324 327 332 330 326 328 330 331
252 253 253 252 255 263 274 281 281 281 280 278 279 281 279 278 280 284 287 289 292 298 302 301 303 303 304 312 323 325 327 339 347 341 325 320 310 294 280 276 281 286 283 280 282 282 277 277 276 271 271 275 275 274 272 262 262 259 234 241 242 241 252 258 261 257 255 255 256 264 275 282 284 283 288 299 308 313 321 327 323 319 322 325 327
253 252 249 248 251 261 268 271 277 281 280 280 281 281 280 281 282 283 284 287 291 294 296 296 300 303 308 315 321 325 327 332 340 337 327 318 309 304 294 286 287 292 290 285 284 281 272 267 268 267 267 272 274 274 275 270 265 260 244 246 245 239 246 252 255 252 248 249 251 259 270 276 279 278 279 288 297 301 311 318 315 313 316 320 323
252 251 249 248 249 254 258 262 273 280 280 281 282 281 281 282 281 280 280 284 290 295 297 299 303 307 310 315 318 319 320 323 326 324 322 320 316 315 307 293 292 305 305 295 289 282 271 263 261 261 261 265 269 271 275 275 267 261 253 256 254 242 242 247 250 250 244 242 244 252 264 270 275 275 273 280 287 290 299 310 313 313 314 318 320
251 250 247 246 246 246 251 258 268 275 278 280 280 280 279 279 279 279 280 286 295 301 301 302 305 308 310 313 317 317 316 318 317 317 319 321 321 320 312 301 299 307 309 305 300 290 276 264 258 257 255 257 264 269 276 276 268 257 250 257 258 247 241 243 246 248 244 240 239 245 256 264 269 270 269 274 281 285 291 305 314 315 314 315 318
254 252 248 244 240 240 248 256 266 272 277 279 280 280 278 278 279 281 284 290 296 298 295 296 300 307 315 319 320 318 319 321 320 321 322 320 317 312 307 302 300 303 304 304 305 303 290 270 255 251 250 253 259 265 267 265 263 255 245 251 257 252 242 240 243 248 246 241 237 241 248 256 262 264 266 270 277 281 284 298 311 314 313 312 314
267 262 257 250 242 243 250 258 269 276 277 281 284 282 280 280 280 282 287 290 289 287 287 292 302 310 316 319 318 316 318 322 324 323 321 317 312 306 302 301 301 303 305 305 305 307 304 282 256 245 244 244 252 263 261 255 260 262 253 249 254 254 246 240 240 246 248 243 238 239 243 250 256 259 262 266 273 276 277 290 304 308 309 306 308
274 275 269 260 256 258 259 265 275 279 280 284 286 283 280 279 278 279 282 284 283 285 289 294 303 308 312 317 319 322 326 326 325 322 318 315 311 306 303 303 304 306 307 309 308 310 310 293 261 243 240 241 250 264 263 253 253 257 260 253 250 253 249 242 239 244 250 248 242 239 242 248 252 255 258 260 266 271 273 285 297 301 302 299 304
261 268 268 261 259 261 262 271 278 281 282 285 284 277 273 268 265 268 270 274 280 287 292 296 301 307 313 320 326 331 334 334 332 328 325 321 316 310 305 302 304 309 311 312 310 311 312 296 265 245 240 242 250 259 258 254 246 244 257 259 249 251 252 248 242 243 250 251 247 243 243 247 251 254 256 256 260 265 269 277 287 294 297 295 299
256 256 258 257 258 263 267 275 279 281 282 281 277 268 261 256 254 256 258 263 276 285 290 296 302 309 317 323 327 332 336 336 335 333 332 329 325 319 312 307 304 308 312 312 309 308 311 299 267 247 241 243 249 253 253 255 246 237 248 254 248 247 252 254 246 242 247 250 250 247 247 248 249 252 254 254 256 261 265 270 277 284 291 289 289
260 258 253 253 260 270 275 277 279 281 281 277 271 263 257 253 252 253 255 261 271 281 289 297 304 311 319 323 327 332 334 333 332 331 330 329 328 325 322 317 310 307 306 307 307 303 307 303 276 254 250 250 254 258 257 257 252 245 245 246 244 242 244 250 247 241 242 245 249 249 250 249 247 248 251 252 254 257 261 264 270 278 286 283 278
257 262 255 254 261 269 274 278 281 281 278 273 268 263 258 254 251 252 258 267 275 284 293 300 306 312 318 322 325 326 327 327 327 327 328 327 327 325 324 321 317 311 306 303 301 297 298 300 288 267 259 259 262 264 261 256 252 249 245 241 240 241 242 244 246 244 241 242 245 247 249 249 245 245 248 250 252 255 256 258 263 272 279 276 271
253 257 254 256 262 266 272 278 280 278 272 267 262 261 259 255 253 255 261 270 277 287 294 298 304 309 314 316 317 318 320 321 323 324 325 325 324 324 322 321 319 316 312 307 301 297 295 295 293 283 271 266 264 263 260 254 250 249 247 241 240 244 244 242 241 244 245 242 243 245 246 247 244 242 246 250 252 252 253 255 257 263 271 272 269
248 249 251 257 263 265 270 274 276 273 268 263 260 259 258 258 259 261 265 271 278 286 291 295 301 306 308 309 309 311 313 315 317 318 320 321 322 322 321 319 317 315 314 311 305 299 295 292 290 288 284 273 265 261 255 250 247 247 245 239 238 241 242 241 238 239 244 242 241 244 245 245 244 241 243 248 251 252 253 253 252 255 262 266 268
243 244 249 256 261 265 270 273 274 272 267 263 261 259 257 258 261 265 270 275 281 285 288 293 299 302 303 303 305 306 308 310 312 314 317 318 319 320 320 318 316 313 312 310 306 299 293 290 287 285 286 280 269 260 251 246 244 243 242 237 236 239 238 239 236 236 241 239 237 241 242 241 241 239 240 245 249 252 254 253 250 251 256 261 265
241 243 247 252 258 264 269 272 273 272 267 265 264 263 261 260 262 267 271 276 281 284 288 293 296 297 298 300 302 303 305 308 312 316 318 319 319 319 319 317 314 311 309 308 305 299 293 287 283 281 282 283 275 261 250 248 246 243 242 238 236 239 238 238 237 236 238 235 233 237 237 236 235 235 236 240 246 251 254 254 250 250 253 257 260
242 241 244 249 256 263 267 270 273 272 269 269 268 269 269 268 269 270 272 277 281 285 288 290 293 294 296 299 300 303 307 311 315 318 320 320 320 320 319 317 314 311 308 307 303 299 292 285 279 277 278 282 280 268 254 251 251 247 243 238 237 239 241 242 239 237 237 234 231 234 233 231 231 231 233 237 241 247 252 253 251 251 253 254 256
237 238 244 250 256 261 265 268 270 271 271 272 272 273 274 274 274 274 275 278 281 283 284 286 289 293 297 301 304 307 310 313 315 317 319 320 320 319 318 316 314 311 309 306 303 298 292 286 280 275 275 276 279 277 263 253 253 251 244 238 236 238 240 242 242 241 239 233 231 235 233 231 230 228 230 234 237 243 248 250 252 253 252 252 253
235 241 248 254 259 262 266 268 269 271 271 271 272 273 273 273 273 274 276 279 279 280 282 286 291 295 299 303 305 307 309 311 314 316 318 318 318 317 315 316 314 311 309 305 300 295 291 288 283 276 273 272 274 277 267 253 250 251 247 239 236 236 237 241 244 244 237 229 230 235 235 232 230 228 229 232 234 237 243 246 250 251 250 251 253
238 245 252 257 261 265 268 270 271 272 272 272 272 272 272 271 272 274 277 280 281 283 287 292 295 297 300 302 303 305 308 312 315 317 318 317 316 316 315 316 313 310 310 306 300 297 292 287 282 274 269 269 271 272 267 255 248 250 248 239 237 237 237 241 243 242 235 230 231 236 237 234 230 228 230 232 233 234 238 242 246 248 248 249 252
241 247 253 257 260 264 268 271 273 275 275 275 273 273 273 273 274 278 280 282 285 289 293 295 296 297 298 300 301 305 309 313 316 317 317 316 316 315 315 315 312 310 310 307 301 298 294 289 282 273 266 265 266 268 267 257 247 249 249 241 237 238 239 240 241 239 235 232 232 236 237 235 232 230 230 231 232 233 234 239 243 245 245 246 249
245 249 251 254 258 262 266 270 273 276 276 275 274 274 275 278 281 284 285 287 289 292 294 294 295 296 297 300 303 307 310 313 315 316 316 317 316 316 315 314 312 311 310 307 301 296 291 288 283 275 269 267 265 264 264 255 245 246 248 244 240 240 239 240 240 239 236 233 233 235 236 235 233 231 230 230 232 233 234 238 243 245 245 245 247
248 250 251 253 256 260 265 270 274 275 275 274 274 276 278 282 283 284 285 287 289 290 292 293 294 296 299 303 306 309 311 314 315 316 316 316 316 316 315 314 310 309 308 305 302 297 291 285 281 275 270 270 265 260 258 251 244 243 245 244 242 242 240 239 239 238 236 234 233 233 234 234 233 231 230 231 231 232 233 237 242 244 244 244 246
246 248 250 252 255 259 263 268 270 272 273 276 277 279 280 280 280 281 283 284 287 289 291 294 296 299 302 305 308 310 312 314 313 314 316 317 317 315 314 311 308 307 306 304 303 301 294 286 281 275 269 267 261 257 254 249 246 245 244 243 242 241 239 237 238 237 236 236 234 235 235 234 233 232 231 231 232 231 232 235 240 242 243 243 245
Height
5883 5883 5883 5882 5883 5883 5883 5883 5882 5882 5881 5880 5880 5879 5879 5879 5878 5877 5876 5875 5874 5873 5872 5871 5870 5869 5868 5867 5866 5865 5864 5863 5862 5861 5860 5859 5858 5857 5856 5855 5853 5852 5851 5849 5848 5847 5846 5845 5845 5844 5843 5843 5842 5841 5840 5839 5839 5838 5838 5837 5837 5836 5836 5835 5836 5835 5834 5834 5833 5833 5833 5832 5832 5832 5831 5831 5831 5830 5830 5830 5830 5829 5829 5829 5828
5883 5883 5882 5882 5882 5882 5882 5882 5881 5881 5880 5880 5879 5879 5879 5878 5877 5876 5875 5874 5873 5872 5872 5871 5870 5868 5868 5867 5866 5865 5864 5863 5862 5862 5861 5860 5858 5857 5856 5855 5853 5852 5851 5849 5848 5847 5846 5845 5845 5844 5844 5843 5842 5842 5841 5840 5839 5839 5838 5837 5837 5836 5836 5836 5836 5835 5835 5834 5834 5833 5833 5833 5832 5832 5832 5831 5831 5830 5830 5830 5830 5829 5829 5829 5828
5883 5882 5882 5881 5881 5881 5881 5881 5880 5880 5879 5879 5879 5878 5878 5878 5877 5876 5875 5874 5873 5872 5871 5870 5869 5868 5867 5867 5866 5865 5864 5863 5863 5862 5861 5860 5859 5858 5856 5855 5854 5852 5851 5850 5849 5847 5846 5845 5845 5844 5844 5843 5843 5842 5842 5841 5840 5839 5838 5838 5838 5837 5836 5836 5836 5835 5835 5835 5834 5834 5833 5833 5833 5832 5832 5831 5831 5831 5830 5830 5830 5829 5829 5828 5828
5882 5882 5881 5880 5880 5880 5880 5879 5879 5879 5879 5879 5878 5878 5878 5877 5876 5875 5874 5873 5872 5871 5870 5869 5868 5867 5867 5866 5866 5865 5864 5863 5863 5862 5861 5860 5859 5858 5857 5856 5854 5853 5852 5850 5849 5848 5847 5846 5845 5844 5844 5844 5843 5843 5842 5842 5841 5840 5839 5839 5839 5838 5837 5836 5836 5836 5836 5835 5835 5834 5833 5833 5833 5832 5832 5831 5831 5831 5830 5830 5830 5829 5829 5828 5828
5881 5881 5880 5879 5878 5878 5878 5878 5878 5878 5878 5878 5878 5877 5877 5876 5875 5874 5873 5872 5871 5870 5869 5869 5868 5867 5866 5866 5866 5865 5864 5864 5863 5862 5862 5861 5860 5858 5857 5856 5855 5853 5852 5851 5849 5848 5847 5846 5845 5845 5844 5844 5844 5843 5843 5842 5841 5840 5840 5840 5839 5839 5838 5838 5837 5837 5836 5836 5835 5834 5834 5833 5833 5832 5832 5831 5831 5831 5830 5830 5829 5829 5829 5828 5828
5880 5879 5878 5878 5877 5877 5877 5877 5878 5878 5878 5878 5877 5877 5876 5875 5874 5873 5872 5871 5870 5869 5869 5868 5867 5866 5866 5866 5865 5865 5864 5864 5863 5862 5862 5861 5860 5859 5858 5856 5855 5854 5852 5851 5850 5848 5847 5846 5845 5845 5844 5844 5844 5843 5843 5842 5841 5841 5840 5840 5840 5839 5839 5839 5838 5837 5837 5836 5836 5835 5834 5833 5833 5833 5832 5832 5831 5831 5830 5830 5829 5829 5829 5828 5828
5878 5878 5877 5877 5876 5876 5877 5877 5877 5877 5877 5877 5876 5875 5874 5873 5873 5872 5871 5870 5869 5869 5868 5867 5867 5866 5865 5865 5864 5864 5864 5863 5863 5862 5861 5860 5860 5858 5857 5856 5855 5854 5852 5851 5850 5848 5847 5846 5845 5845 5844 5844 5844 5844 5843 5843 5842 5841 5840 5840 5840 5840 5839 5839 5838 5838 5837 5837 5836 5835 5834 5833 5833 5833 5832 5832 5831 5831 5830 5830 5829 5829 5828 5828 5828
5877 5877 5876 5876 5876 5876 5876 5877 5877 5877 5876 5876 5875 5874 5873 5872 5871 5871 5870 5869 5869 5868 5867 5867 5866 5865 5864 5864 5863 5863 5863 5862 5862 5861 5861 5860 5859 5858 5857 5856 5855 5853 5852 5851 5850 5849 5847 5846 5845 5845 5844 5844 5843 5843 5843 5843 5842 5842 5841 5840 5840 5840 5840 5839 5839 5838 5838 5837 5836 5836 5835 5834 5834 5833 5832 5832 5831 5831 5830 5829 5829 5829 5828 5828 5828
5875 5875 5875 5875 5875 5876 5876 5876 5876 5876 5875 5874 5873 5873 5872 5871 5871 5870 5870 5869 5868 5867 5866 5866 5865 5864 5863 5863 5862 5862 5861 5861 5861 5861 5860 5859 5859 5858 5856 5855 5854 5853 5852 5851 5851 5849 5848 5847 5846 5845 5844 5844 5843 5843 5843 5843 5843 5842 5841 5840 5840 5840 5839 5839 5839 5839 5838 5837 5837 5836 5835 5834 5834 5833 5832 5832 5831 5831 5830 5829 5829 5828 5828 5828 5827
5874 5874 5874 5875 5875 5876 5876 5876 5875 5875 5874 5873 5873 5872 5871 5870 5870 5870 5869 5868 5867 5866 5866 5865 5865 5864 5863 5862 5861 5860 5860 5860 5860 5860 5859 5858 5858 5857 5856 5855 5853 5852 5852 5851 5851 5850 5848 5847 5846 5845 5845 5844 5843 5843 5843 5842 5842 5842 5841 5841 5840 5839 5839 5839 5839 5838 5838 5837 5837 5836 5836 5835 5834 5833 5832 5832 5831 5830 5830 5829 5829 5828 5828 5827 5827
5873 5874 5874 5875 5875 5876 5876 5875 5875 5874 5873 5873 5872 5872 5871 5870 5870 5869 5868 5868 5866 5866 5865 5864 5864 5863 5862 5861 5860 5859 5859 5859 5859 5859 5858 5857 5857 5856 5855 5854 5853 5852 5851 5851 5851 5850 5848 5847 5846 5845 5845 5844 5843 5842 5842 5842 5842 5842 5841 5841 5840 5839 5839 5839 5838 5838 5837 5837 5837 5836 5836 5835 5834 5833 5832 5831 5831 5830 5830 5829 5829 5828 5828 5827 5827
5873 5874 5874 5875 5875 5875 5875 5874 5874 5873 5872 5872 5872 5871 5871 5870 5869 5868 5868 5867 5865 5865 5864 5863 5863 5862 5861 5860 5859 5858 5858 5858 5858 5858 5857 5857 5856 5856 5855 5854 5852 5851 5851 5850 5850 5849 5848 5847 5846 5845 5845 5844 5843 5842 5842 5841 5841 5841 5841 5841 5840 5840 5839 5838 5838 5837 5837 5837 5837 5836 5836 5835 5833 5832 5832 5831 5831 5830 5830 5829 5829 5828 5828 5827 5827
5873 5873 5874 5874 5874 5874 5874 5873 5872 5872 5871 5871 5871 5870 5869 5869 5868 5867 5867 5865 5864 5863 5863 5862 5862 5861 5860 5859 5858 5858 5858 5857 5857 5857 5857 5856 5856 5855 5854 5853 5852 5851 5850 5849 5849 5848 5848 5847 5846 5845 5844 5844 5843 5842 5841 5841 5841 5840 5840 5841 5840 5840 5840 5839 5838 5837 5837 5837 5837 5836 5835 5834 5833 5832 5831 5831 5830 5830 5829 5829 5829 5828 5827 5827 5826
5872 5873 5873 5873 5873 5873 5872 5872 5871 5871 5870 5870 5869 5869 5868 5867 5867 5866 5865 5864 5863 5862 5861 5861 5860 5860 5859 5858 5858 5858 5857 5857 5857 5857 5857 5856 5855 5855 5854 5853 5852 5850 5849 5848 5848 5847 5847 5846 5846 5845 5844 5843 5843 5842 5841 5841 5840 5840 5840 5840 5840 5840 5839 5839 5838 5837 5836 5836 5836 5836 5835 5834 5833 5832 5831 5830 5830 5830 5829 5829 5828 5828 5827 5827 5826
5871 5872 5872 5872 5872 5871 5871 5870 5870 5870 5869 5869 5868 5867 5867 5866 5865 5865 5864 5863 5862 5861 5860 5859 5859 5858 5858 5858 5858 5858 5857 5856 5856 5857 5857 5856 5855 5855 5854 5853 5852 5850 5849 5848 5847 5846 5846 5845 5845 5844 5844 5843 5842 5842 5841 5840 5840 5839 5839 5839 5839 5839 5838 5838 5838 5837 5836 5836 5835 5835 5835 5834 5833 5832 5831 5830 5830 5829 5829 5828 5828 5827 5827 5826 5826
5870 5870 5870 5870 5870 5870 5870 5869 5869 5869 5868 5868 5867 5866 5866 5865 5864 5863 5862 5861 5861 5860 5859 5858 5857 5857 5857 5858 5858 5858 5857 5856 5856 5856 5856 5856 5855 5854 5854 5852 5851 5850 5848 5847 5846 5845 5845 5844 5844 5843 5843 5842 5842 5841 5840 5840 5839 5839 5838 5838 5838 5838 5838 5837 5837 5836 5835 5835 5835 5834 5834 5833 5833 5832 5831 5831 5830 5829 5828 5828 5828 5827 5826 5826 5825
5868 5868 5869 5869 5869 5869 5869 5868 5868 5867 5867 5866 5866 5865 5864 5863 5862 5861 5861 5860 5860 5859 5858 5857 5857 5856 5856 5857 5858 5857 5856 5855 5854 5855 5855 5855 5854 5854 5853 5852 5851 5849 5848 5846 5845 5844 5844 5843 5842 5842 5841 5841 5841 5840 5840 5839 5839 5838 5838 5838 5837 5837 5837 5837 5836 5836 5835 5835 5834 5834 5833 5833 5833 5832 5831 5831 5830 5829 5828 5828 5827 5826 5826 5825 5824
5867 5867 5868 5868 5868 5868 5867 5867 5866 5866 5865 5865 5864 5863 5863 5862 5861 5860 5860 5860 5859 5859 5858 5857 5856 5855 5855 5856 5856 5856 5855 5854 5853 5853 5853 5853 5853 5853 5852 5852 5851 5849 5847 5846 5845 5844 5843 5842 5841 5841 5840 5840 5840 5840 5840 5839 5838 5837 5837 5837 5836 5836 5836 5836 5835 5835 5835 5834 5834 5833 5833 5833 5832 5832 5831 5831 5830 5829 5828 5828 5827 5826 5825 5824 5824
5866 5867 5867 5867 5867 5867 5866 5866 5865 5865 5864 5864 5863 5862 5862 5861 5860 5859 5859 5859 5858 5858 5857 5857 5856 5854 5854 5854 5854 5854 5853 5852 5852 5852 5852 5852 5852 5852 5852 5851 5850 5849 5847 5846 5845 5844 5842 5841 5841 5840 5840 5839 5839 5839 5839 5839 5838 5837 5836 5836 5836 5836 5836 5835 5835 5834 5834 5834 5833 5833 5832 5832 5832 5831 5831 5830 5830 5829 5828 5827 5826 5825 5825 5824 5823
5866 5866 5866 5866 5865 5865 5865 5864 5864 5863 5863 5862 5862 5861 5860 5860 5859 5859 5858 5857 5857 5857 5856 5856 5855 5854 5853 5852 5852 5851 5851 5851 5851 5850 5850 5851 5851 5851 5851 5850 5850 5849 5847 5845 5844 5843 5842 5841 5840 5839 5839 5838 5838 5838 5838 5838 5838 5837 5835 5835 5835 5835 5835 5834 5834 5834 5833 5833 5833 5832 5832 5832 5831 5831 5830 5830 5829 5828 5828 5827 5826 5825 5824 5823 5822
5865 5865 5865 5864 5864 5864 5864 5863 5863 5862 5862 5862 5861 5860 5859 5859 5858 5858 5857 5856 5856 5856 5855 5854 5853 5852 5851 5850 5849 5849 5849 5849 5849 5849 5849 5849 5849 5850 5849 5849 5849 5848 5846 5845 5844 5843 5842 5841 5840 5839 5838 5837 5837 5837 5837 5837 5838 5837 5835 5834 5834 5834 5834 5834 5833 5833 5833 5833 5832 5832 5831 5831 5831 5830 5829 5829 5828 5828 5827 5826 5825 5824 5823 5822 5822
5864 5864 5864 5863 5863 5863 5862 5862 5861 5861 5861 5861 5860 5859 5858 5858 5857 5857 5856 5855 5855 5854 5853 5852 5851 5850 5849 5848 5847 5847 5847 5847 5847 5847 5848 5848 5848 5848 5848 5847 5847 5847 5846 5844 5843 5842 5841 5840 5839 5838 5837 5836 5836 5836 5836 5836 5837 5837 5835 5833 5833 5833 5834 5833 5833 5832 5832 5832 5832 5831 5831 5831 5830 5829 5829 5828 5828 5827 5826 5826 5825 5824 5823 5822 5821
5863 5863 5863 5862 5862 5862 5861 5860 5860 5860 5860 5859 5858 5858 5857 5857 5856 5856 5855 5854 5854 5852 5851 5850 5849 5848 5848 5847 5846 5846 5845 5845 5845 5846 5846 5846 5846 5846 5846 5846 5846 5845 5845 5844 5843 5842 5841 5840 5839 5838 5836 5835 5835 5835 5835 5835 5835 5836 5835 5833 5832 5832 5832 5833 5832 5832 5832 5832 5831 5831 5830 5830 5829 5829 5828 5828 5827 5826 5826 5825 5824 5823 5822 5821 5820
5861 5861 5861 5861 5860 5860 5859 5859 5858 5858 5858 5857 5856 5856 5855 5855 5855 5854 5854 5853 5852 5850 5849 5848 5847 5847 5847 5846 5845 5845 5844 5843 5843 5844 5845 5845 5844 5844 5844 5844 5844 5844 5843 5842 5841 5841 5840 5839 5838 5837 5836 5835 5834 5834 5833 5834 5834 5835 5835 5832 5831 5831 5831 5832 5831 5831 5831 5831 5830 5830 5829 5829 5829 5828 5827 5827 5826 5826 5825 5824 5823 5823 5822 5821 5819
5859 5860 5860 5859 5859 5858 5858 5857 5857 5856 5856 5855 5854 5854 5854 5854 5853 5853 5852 5851 5850 5849 5848 5847 5846 5846 5845 5845 5844 5843 5842 5841 5841 5842 5842 5842 5842 5843 5843 5843 5843 5843 5842 5841 5840 5840 5839 5838 5837 5837 5836 5834 5833 5833 5833 5833 5833 5834 5834 5832 5830 5830 5830 5830 5831 5830 5830 5830 5830 5829 5829 5828 5828 5827 5827 5826 5825 5825 5824 5823 5823 5822 5821 5820 5819
5858 5858 5858 5857 5857 5857 5856 5856 5855 5855 5854 5853 5853 5852 5852 5852 5852 5852 5850 5849 5848 5848 5847 5846 5845 5844 5843 5843 5843 5842 5840 5839 5839 5839 5840 5840 5840 5841 5841 5841 5841 5841 5841 5840 5839 5839 5838 5837 5836 5836 5835 5834 5833 5833 5832 5832 5832 5833 5833 5832 5830 5829 5829 5829 5830 5830 5829 5829 5829 5828 5828 5827 5827 5826 5826 5825 5824 5824 5823 5822 5822 5821 5821 5819 5818
5856 5856 5857 5856 5855 5855 5854 5854 5853 5853 5853 5852 5852 5851 5851 5851 5850 5850 5848 5848 5847 5847 5846 5844 5844 5843 5842 5842 5841 5840 5839 5839 5837 5837 5837 5838 5838 5839 5840 5840 5840 5840 5839 5839 5838 5838 5837 5835 5835 5835 5835 5834 5833 5832 5832 5831 5831 5832 5833 5831 5830 5829 5828 5828 5829 5829 5829 5828 5828 5828 5827 5826 5826 5825 5825 5824 5823 5823 5822 5821 5821 5820 5820 5819 5817
5854 5855 5855 5854 5853 5853 5852 5852 5852 5852 5852 5851 5851 5850 5850 5849 5848 5848 5846 5846 5846 5846 5845 5843 5843 5842 5841 5841 5841 5839 5839 5838 5836 5835 5836 5836 5836 5837 5838 5838 5839 5838 5837 5837 5836 5836 5835 5834 5833 5833 5833 5833 5832 5832 5831 5831 5830 5831 5832 5831 5829 5828 5827 5827 5828 5828 5828 5827 5827 5827 5826 5826 5825 5824 5824 5824 5823 5822 5821 5820 5820 5819 5819 5818 5817
5852 5853 5853 5852 5851 5851 5851 5851 5850 5850 5850 5850 5850 5849 5848 5847 5846 5846 5845 5844 5844 5844 5844 5843 5842 5841 5840 5840 5840 5839 5838 5837 5836 5835 5835 5835 5835 5836 5836 5837 5837 5837 5836 5835 5834 5833 5833 5832 5832 5832 5832 5832 5831 5831 5830 5830 5829 5830 5831 5830 5829 5827 5826 5826 5827 5827 5827 5826 5826 5826 5826 5825 5824 5824 5823 5823 5822 5821 5820 5819 5819 5819 5818 5817 5816
5849 5850 5849 5849 5849 5849 5849 5849 5848 5849 5849 5848 5848 5847 5846 5845 5845 5844 5843 5843 5843 5843 5843 5842 5841 5840 5840 5839 5839 5838 5837 5836 5835 5834 5834 5833 5833 5834 5835 5835 5835 5835 5834 5832 5832 5831 5831 5830 5830 5830 5830 5830 5830 5829 5829 5829 5828 5828 5829 5829 5828 5826 5825 5825 5825 5826 5825 5825 5825 5825 5825 5824 5824 5823 5823 5822 5821 5820 5819 5818 5818 5818 5817 5816 5815
5846 5847 5846 5846 5847 5847 5847 5847 5847 5847 5847 5847 5847 5846 5845 5843 5843 5842 5842 5841 5842 5842 5841 5841 5840 5840 5839 5838 5837 5837 5836 5834 5833 5833 5832 5832 5831 5831 5832 5833 5833 5833 5832 5831 5830 5829 5829 5828 5827 5827 5828 5828 5828 5827 5827 5827 5826 5826 5827 5827 5826 5826 5824 5824 5824 5824 5824 5824 5824 5824 5824 5823 5823 5822 5822 5821 5821 5820 5819 5818 5817 5817 5816 5815 5814
5843 5844 5844 5844 5845 5845 5845 5845 5845 5845 5845 5845 5846 5845 5843 5842 5840 5840 5840 5840 5840 5840 5840 5839 5839 5838 5837 5836 5836 5835 5834 5833 5832 5832 5831 5830 5830 5829 5830 5830 5831 5831 5830 5830 5829 5828 5826 5825 5825 5825 5825 5826 5826 5825 5825 5825 5824 5824 5825 5825 5825 5825 5824 5823 5823 5823 5823 5823 5823 5823 5823 5822 5822 5822 5821 5820 5820 5819 5818 5817 5816 5816 5815 5814 5813
5842 5843 5843 5843 5843 5843 5843 5843 5843 5843 5843 5844 5844 5843 5842 5841 5839 5838 5838 5838 5839 5839 5838 5837 5837 5836 5835 5835 5835 5834 5833 5832 5831 5831 5830 5829 5829 5828 5828 5828 5828 5828 5828 5827 5826 5825 5824 5822 5822 5822 5823 5824 5824 5823 5822 5822 5822 5822 5822 5823 5823 5823 5823 5822 5822 5822 5822 5822 5822 5822 5822 5822 5821 5821 5820 5819 5819 5818 5817 5816 5816 5815 5814 5813 5812
5843 5843 5843 5843 5842 5842 5842 5842 5842 5842 5842 5842 5842 5842 5841 5839 5838 5837 5837 5837 5837 5837 5836 5835 5835 5835 5834 5834 5834 5833 5832 5831 5830 5830 5829 5828 5827 5827 5827 5826 5825 5825 5825 5824 5823 5822 5820 5819 5818 5819 5820 5821 5821 5820 5820 5820 5821 5820 5820 5821 5822 5822 5822 5821 5821 5821 5821 5821 5821 5821 5821 5821 5820 5820 5819 5819 5818 5817 5817 5816 5815 5814 5813 5812 5812
5843 5843 5843 5843 5842 5842 5841 5841 5840 5840 5840 5840 5840 5840 5839 5838 5837 5836 5835 5835 5835 5834 5834 5834 5834 5834 5834 5833 5833 5832 5831 5830 5829 5828 5828 5827 5826 5825 5825 5824 5824 5823 5822 5821 5820 5818 5817 5815 5815 5816 5818 5818 5817 5818 5819 5818 5818 5818 5818 5819 5820 5821 5821 5820 5820 5819 5820 5820 5820 5820 5819 5819 5819 5818 5818 5817 5817 5816 5816 5815 5814 5813 5813 5812 5811
5839 5841 5842 5841 5841 5841 5840 5839 5839 5838 5838 5838 5838 5838 5837 5836 5835 5834 5834 5833 5833 5832 5832 5832 5832 5832 5832 5832 5831 5830 5829 5828 5827 5827 5826 5826 5825 5824 5823 5823 5822 5821 5820 5819 5817 5816 5814 5813 5813 5815 5816 5816 5815 5816 5817 5816 5815 5815 5816 5817 5818 5820 5820 5819 5818 5818 5818 5818 5819 5819 5818 5818 5817 5817 5817 5816 5816 5815 5815 5814 5813 5813 5812 5811 5810
5837 5838 5839 5840 5840 5839 5838 5838 5837 5837 5836 5837 5836 5836 5835 5834 5833 5833 5832 5832 5832 5831 5831 5831 5831 5830 5830 5829 5829 5828 5827 5827 5826 5825 5824 5824 5823 5823 5822 5821 5821 5820 5819 5818 5816 5814 5813 5812 5812 5813 5813 5813 5813 5814 5814 5813 5812 5812 5813 5815 5816 5817 5818 5818 5817 5816 5816 5816 5817 5817 5817 5817 5816 5815 5815 5815 5814 5814 5814 5813 5813 5812 5811 5810 5810
5837 5837 5838 5838 5838 5837 5837 5836 5836 5835 5835 5834 5834 5834 5833 5832 5832 5831 5831 5831 5830 5830 5830 5829 5829 5828 5827 5827 5826 5826 5825 5825 5824 5823 5822 5821 5821 5820 5820 5819 5818 5818 5817 5817 5815 5814 5812 5811 5810 5811 5811 5811 5811 5811 5811 5811 5811 5811 5811 5812 5813 5814 5815 5816 5816 5815 5814 5814 5814 5815 5815 5815 5815 5814 5814 5813 5813 5813 5812 5812 5812 5811 5810 5810 5809
5835 5836 5836 5836 5836 5835 5835 5835 5834 5834 5833 5832 5832 5832 5831 5831 5830 5830 5829 5829 5829 5829 5828 5827 5827 5826 5825 5825 5824 5823 5823 5822 5822 5821 5820 5819 5819 5818 5817 5816 5815 5815 5815 5815 5814 5813 5811 5809 5808 5808 5809 5809 5809 5809 5808 5809 5809 5809 5809 5809 5810 5811 5812 5813 5814 5814 5813 5812 5811 5812 5813 5813 5813 5813 5812 5812 5812 5811 5811 5811 5810 5810 5809 5809 5809
5832 5833 5833 5834 5834 5834 5834 5834 5833 5832 5831 5831 5831 5830 5830 5829 5829 5829 5828 5828 5827 5827 5826 5826 5825 5824 5824 5823 5822 5822 5821 5820 5820 5819 5818 5818 5817 5816 5815 5814 5813 5812 5812 5812 5812 5811 5809 5807 5806 5806 5806 5807 5807 5807 5806 5806 5807 5806 5806 5807 5807 5808 5810 5811 5811 5811 5811 5810 5809 5809 5810 5811 5811 5812 5811 5811 5810 5810 5810 5809 5809 5809 5808 5808 5808
5829 5830 5830 5831 5832 5832 5832 5832 5831 5830 5830 5829 5829 5829 5829 5828 5828 5828 5827 5826 5826 5825 5825 5824 5824 5823 5822 5821 5821 5820 5819 5818 5818 5817 5816 5815 5815 5814 5813 5812 5811 5809 5809 5808 5808 5807 5806 5805 5804 5804 5804 5804 5804 5804 5804 5804 5804 5804 5804 5804 5804 5805 5807 5808 5808 5808 5808 5807 5807 5806 5807 5808 5809 5809 5810 5809 5809 5809 5808 5808 5808 5807 5807 5807 5807
5827 5827 5828 5829 5830 5830 5830 5829 5829 5829 5828 5828 5828 5828 5828 5827 5827 5826 5826 5825 5824 5823 5823 5823 5822 5822 5821 5820 5819 5818 5817 5817 5816 5815 5814 5813 5812 5812 5811 5810 5808 5807 5806 5805 5804 5804 5803 5803 5802 5801 5801 5801 5801 5801 5801 5801 5802 5802 5801 5801 5802 5802 5803 5804 5805 5805 5805 5804 5804 5804 5804 5805 5806 5807 5808 5808 5808 5807 5807 5807 5807 5806 5806 5806 5806
5825 5825 5826 5827 5828 5828 5828 5827 5827 5827 5826 5826 5826 5826 5826 5826 5826 5825 5824 5823 5823 5822 5822 5821 5821 5820 5819 5818 5818 5816 5815 5814 5813 5812 5811 5810 5810 5809 5808 5808 5806 5805 5803 5802 5801 5801 5800 5800 5799 5798 5798 5798 5798 5798 5798 5798 5799 5799 5798 5799 5799 5799 5800 5801 5802 5802 5802 5802 5802 5802 5802 5803 5803 5804 5805 5806 5806 5806 5806 5806 5805 5805 5805 5805 5805
5823 5824 5824 5825 5826 5826 5825 5825 5825 5824 5824 5824 5824 5824 5824 5824 5824 5823 5822 5822 5821 5821 5820 5820 5819 5818 5817 5817 5816 5815 5813 5811 5810 5808 5807 5807 5806 5806 5805 5804 5803 5802 5800 5799 5798 5797 5796 5796 5795 5794 5794 5794 5794 5794 5795 5795 5796 5795 5795 5796 5796 5797 5798 5799 5798 5799 5799 5800 5800 5800 5800 5801 5801 5802 5802 5803 5804 5804 5804 5804 5804 5804 5803 5803 5803
5821 5822 5823 5823 5823 5823 5823 5823 5823 5822 5822 5822 5821 5821 5821 5822 5821 5821 5821 5820 5820 5820 5819 5819 5818 5817 5816 5815 5813 5812 5810 5809 5807 5806 5805 5804 5803 5802 5801 5800 5799 5798 5797 5796 5795 5794 5793 5791 5791 5790 5790 5791 5790 5791 5791 5791 5791 5791 5791 5792 5793 5795 5796 5795 5795 5797 5798 5798 5798 5798 5798 5799 5799 5799 5800 5801 5801 5802 5802 5803 5803 5802 5802 5802 5802
5820 5820 5821 5821 5821 5821 5821 5821 5821 5821 5820 5820 5820 5820 5820 5819 5819 5819 5819 5819 5818 5818 5817 5817 5816 5815 5813 5812 5811 5810 5809 5807 5806 5804 5802 5801 5800 5799 5798 5796 5795 5794 5793 5793 5792 5792 5790 5788 5787 5787 5786 5786 5786 5787 5788 5788 5787 5787 5788 5789 5789 5791 5792 5792 5793 5795 5795 5795 5795 5795 5796 5797 5797 5797 5798 5799 5799 5799 5800 5801 5801 5801 5800 5800 5800
5818 5818 5818 5818 5818 5818 5818 5818 5819 5819 5819 5818 5818 5818 5818 5817 5817 5817 5817 5817 5816 5816 5815 5814 5813 5813 5812 5811 5810 5808 5807 5805 5804 5802 5800 5798 5797 5796 5795 5794 5792 5791 5790 5790 5789 5789 5788 5786 5785 5784 5783 5782 5783 5783 5784 5784 5784 5784 5784 5785 5786 5787 5788 5789 5791 5792 5792 5793 5793 5793 5793 5794 5794 5795 5796 5796 5797 5797 5798 5798 5799 5799 5799 5798 5799
5815 5816 5816 5816 5816 5816 5816 5816 5816 5816 5816 5816 5816 5815 5815 5815 5815 5815 5814 5814 5813 5813 5812 5812 5811 5811 5810 5809 5808 5806 5805 5803 5801 5799 5797 5796 5794 5793 5792 5791 5790 5788 5788 5787 5786 5785 5784 5783 5781 5781 5780 5779 5779 5780 5779 5780 5781 5781 5781 5781 5782 5783 5784 5786 5787 5788 5789 5790 5791 5791 5791 5791 5791 5792 5793 5794 5794 5795 5795 5796 5797 5797 5797 5796 5797
5812 5813 5813 5814 5814 5814 5814 5813 5813 5813 5813 5813 5813 5812 5812 5812 5812 5811 5811 5810 5810 5810 5810 5810 5810 5810 5809 5807 5806 5804 5802 5800 5799 5797 5795 5793 5792 5790 5789 5788 5787 5785 5784 5784 5783 5782 5781 5779 5777 5777 5776 5776 5776 5776 5775 5775 5776 5777 5778 5778 5779 5780 5781 5782 5784 5785 5787 5787 5788 5788 5788 5788 5789 5789 5790 5791 5792 5792 5793 5793 5794 5795 5794 5794 5794
5810 5810 5811 5811 5811 5811 5811 5811 5811 5810 5810 5810 5810 5809 5809 5809 5809 5808 5808 5808 5808 5809 5809 5808 5808 5807 5806 5804 5802 5801 5799 5797 5796 5794 5793 5791 5789 5788 5787 5786 5784 5782 5781 5780 5779 5778 5777 5775 5774 5773 5773 5772 5772 5772 5772 5772 5772 5772 5773 5774 5776 5777 5778 5779 5780 5781 5783 5784 5784 5785 5785 5786 5786 5786 5787 5788 5789 5790 5790 5791 5792 5792 5792 5791 5792
5808 5808 5809 5809 5809 5809 5809 5808 5808 5807 5807 5807 5807 5807 5807 5807 5807 5807 5807 5807 5807 5807 5806 5806 5805 5803 5802 5801 5799 5797 5796 5795 5793 5792 5790 5789 5787 5786 5784 5783 5781 5779 5778 5776 5775 5774 5773 5771 5770 5770 5769 5769 5768 5768 5768 5768 5768 5768 5769 5770 5771 5772 5773 5775 5776 5776 5778 5780 5781 5781 5782 5783 5783 5784 5784 5785 5787 5788 5788 5788 5789 5789 5789 5789 5790